User: anonymous
Location: Vancouver
(49.2500°N, 123.1330°W)
Time: 08:34:05
(UTC-07:00)
Language:

Oscar 11 - Orbit

View from above orbital plane
View from above orbital plane
View from above satellite
View from above satellite

Ground track
Ground track

The orbit data is extracted from the following two-line orbital elements,

1 14781U 84021B   14259.74144055  .00000802  00000-0  10830-3 0  5987
2 14781 097.8429 318.0417 0007749 235.3150 124.7333 14.81735561641524
Epoch (UTC): 16 September 2014 17:47:40
Eccentricity: 0.0007749
inclination: 97.8429°
perigee height: 618 km
apogee height: 629 km
right ascension of ascending node: 318.0417°
argument of perigee: 235.3150°
revolutions per day: 14.81735561
mean anomaly at epoch: 124.7333°
orbit number at epoch: 64152

The dashed part of the orbit path shows where the satellite is in the earth's shadow,  

DLR